Weather History for Erie, CO

Change the Weather History Date:

Monday, February 24, 2014

  Actual Average (KBJC) Record (KBJC)
Temperature  
Mean Temperature 42 °F -  
Max Temperature 63 °F 42 °F 69 °F (1986)
Min Temperature 20 °F 23 °F -2 °F (2003)
Degree Days  
Heating Degree Days 24    
Moisture  
Dew Point 19 °F    
Average Humidity 62    
Maximum Humidity 94    
Minimum Humidity 11    
Precipitation  
Precipitation 0.00 in - - ()
Sea Level Pressure  
Sea Level Pressure 29.99 in    
Wind  
Wind Speed 6 mph (NE)    
Max Wind Speed 23 mph    
Max Gust Speed 32 mph    
Visibility 7 miles    
Events Fog    
Averages and records for this station are not official NWS values.
T = Trace of Precipitation, MM = Missing Value Source: NWS Daily Summary

Daily Weather History Graph

Daily Weather History Graph

Search for Another Location

Airport:

Trip Planner

Search our weather history database for the weather conditions in past years. The results will help you decide how hot, cold, wet, or windy it might be!

Date:

Astronomy

Feb. 24, 2014 Rise Set
Actual Time 6:40 AM MST 5:46 PM MST
Civil Twilight 6:13 AM MST 6:13 PM MST
Nautical Twilight 5:42 AM MST 6:45 PM MST
Astronomical Twilight 5:10 AM MST 7:16 PM MST
Moon 2:41 AM MST (2/24) 12:50 PM MST (2/24)
Length of Visible Light 12h 00m
Length of Day
11h 05m
Waning Crescent, 27% of the Moon is Illuminated
Feb 24
Waning Crescent
Mar 1
New
Mar 8
First Quarter
Mar 16
Full
Mar 23
Last Quarter

Hourly Weather History & Observations

Time (MST) Temp. Windchill Dew Point Humidity Pressure Visibility Wind Dir Wind Speed Gust Speed Precip Events Conditions
12:16 AM - - - N/A% 29.96 in 0.5 mi North 3.5 mph - N/A Fog Fog
12:36 AM - - - N/A% 29.94 in 0.2 mi East 5.8 mph - N/A Fog Fog
12:56 AM - - - N/A% 29.94 in 0.2 mi Calm Calm - N/A Fog Fog
1:16 AM - - - N/A% 29.94 in 0.2 mi Calm Calm - N/A Fog Fog
1:36 AM - - - N/A% 29.94 in 0.2 mi ENE 3.5 mph - N/A Fog Fog
1:56 AM - - - N/A% 29.94 in 0.2 mi Calm Calm - N/A Fog Fog
2:16 AM - - - N/A% 29.93 in 0.2 mi Calm Calm - N/A Fog Fog
2:36 AM - - - N/A% 29.91 in 0.2 mi Calm Calm - N/A Fog Fog
2:56 AM - - - N/A% 29.90 in 0.5 mi SSE 5.8 mph - N/A Fog Fog
3:16 AM - - - N/A% 29.90 in 0.5 mi SSE 3.5 mph - N/A Fog Fog
3:36 AM - - - N/A% 29.90 in 0.5 mi Calm Calm - N/A Fog Fog
3:56 AM - - - N/A% 29.89 in 0.5 mi ESE 3.5 mph - N/A Fog Fog
4:16 AM - - - N/A% 29.91 in 0.5 mi NW 4.6 mph - N/A Fog Fog
4:36 AM - - - N/A% 29.89 in 0.8 mi NNW 3.5 mph - N/A   Overcast
4:56 AM - - - N/A% 29.90 in 0.5 mi North 5.8 mph - N/A Fog Fog
5:16 AM - - - N/A% 29.89 in 0.5 mi NE 3.5 mph - N/A Fog Fog
5:36 AM - - - N/A% 29.89 in 0.5 mi East 4.6 mph - N/A Fog Fog
5:56 AM - - - N/A% 29.90 in 0.2 mi Calm Calm - N/A Fog Fog
6:16 AM - - - N/A% 29.90 in 0.2 mi Calm Calm - N/A Fog Fog
6:36 AM - - - N/A% 29.89 in 0.2 mi Calm Calm - N/A Fog Fog
6:56 AM - - - N/A% 29.88 in 0.2 mi SW 10.4 mph - N/A Fog Fog
7:16 AM - - - N/A% 29.87 in 4.0 mi SW 9.2 mph - N/A   Haze
7:36 AM - - - N/A% 29.87 in 10.0 mi WSW 10.4 mph 20.7 mph N/A   Clear
7:56 AM 39.7 °F 30.3 °F 36.7 °F 89% 29.88 in 10.0 mi West 19.6 mph 26.5 mph N/A   Clear
8:16 AM 43.9 °F 41.3 °F 22.8 °F 43% 29.88 in 10.0 mi North 4.6 mph - N/A   Clear
8:36 AM 30.2 °F 26.7 °F 27.0 °F 88% 29.88 in 7.0 mi West 3.5 mph - N/A   Clear
8:56 AM 35.4 °F 26.8 °F 27.1 °F 72% 29.89 in 7.0 mi North 12.7 mph - N/A   Clear
9:16 AM 29.3 °F 20.8 °F 27.7 °F 94% 29.89 in 2.0 mi North 9.2 mph - N/A   Scattered Clouds
9:36 AM 31.1 °F 27.7 °F 29.3 °F 93% 29.88 in 3.0 mi NE 3.5 mph - N/A   Scattered Clouds
9:56 AM 32.0 °F 27.5 °F 29.7 °F 91% 29.88 in 5.0 mi North 4.6 mph - N/A   Clear
10:16 AM 35.6 °F - 29.8 °F 80% 29.89 in 7.0 mi Calm Calm - N/A   Clear
10:36 AM 40.5 °F 36.5 °F 32.0 °F 72% 29.89 in 10.0 mi North 5.8 mph - N/A   Clear
10:56 AM 43.0 °F 39.5 °F 31.1 °F 63% 29.89 in 10.0 mi North 5.8 mph - N/A   Clear
11:16 AM - - - N/A% 29.89 in 10.0 mi NNE 5.8 mph - N/A   Clear
11:36 AM 51.1 °F - 27.1 °F 40% 29.88 in 10.0 mi Calm Calm - N/A   Clear
11:56 AM - - - N/A% 29.88 in 10.0 mi ENE 3.5 mph - N/A   Clear
12:16 PM 54.7 °F - 25.0 °F 32% 29.86 in 10.0 mi ENE 4.6 mph - N/A   Clear
12:36 PM - - - N/A% 29.86 in 10.0 mi Calm Calm - N/A   Clear
12:56 PM 59.7 °F - 21.9 °F 23% 29.85 in 10.0 mi Calm Calm - N/A   Clear
1:16 PM - - - N/A% 29.85 in 10.0 mi NNW 3.5 mph 20.7 mph N/A   Clear
1:36 PM - - - N/A% 29.84 in 10.0 mi NNW 12.7 mph 20.7 mph N/A   Clear
1:56 PM - - - N/A% 29.83 in - WNW 23.0 mph - N/A   Unknown
2:16 PM 63.7 °F - 8.6 °F 11% 29.85 in 10.0 mi NW 18.4 mph 31.1 mph N/A   Clear
2:36 PM 63.0 °F - 8.6 °F 12% 29.85 in 10.0 mi NW 20.7 mph 29.9 mph N/A   Clear
2:56 PM 62.8 °F - 9.0 °F 12% 29.85 in 10.0 mi NW 18.4 mph 28.8 mph N/A   Clear
3:16 PM 61.3 °F - 14.9 °F 16% 29.86 in 10.0 mi NNE 17.3 mph 26.5 mph N/A   Clear
3:36 PM 59.7 °F - 16.7 °F 19% 29.89 in 10.0 mi North 19.6 mph 31.1 mph N/A   Clear
3:56 PM 42.3 °F 35.5 °F 26.2 °F 53% 29.93 in 10.0 mi NE 12.7 mph 32.2 mph N/A   Clear
4:16 PM 35.4 °F 26.8 °F 23.9 °F 63% 29.99 in 10.0 mi NW 12.7 mph 24.2 mph N/A   Clear
4:36 PM - - - N/A% 30.04 in 10.0 mi NE 18.4 mph 29.9 mph N/A   Clear
4:56 PM 31.1 °F 20.1 °F 22.3 °F 70% 30.09 in 10.0 mi NE 16.1 mph 19.6 mph N/A   Scattered Clouds
5:16 PM 30.0 °F 20.0 °F 21.2 °F 70% 30.12 in 10.0 mi ENE 12.7 mph - N/A   Scattered Clouds
5:36 PM - - - N/A% 30.14 in 10.0 mi NE 10.4 mph - N/A   Mostly Cloudy
5:56 PM 27.5 °F 18.0 °F 19.2 °F 71% 30.17 in 10.0 mi East 10.4 mph - N/A   Overcast
6:16 PM 26.4 °F 15.5 °F 18.3 °F 71% 30.18 in 10.0 mi East 12.7 mph 17.3 mph N/A   Overcast
6:36 PM 24.8 °F 13.4 °F 17.2 °F 73% 30.20 in 10.0 mi East 12.7 mph 20.7 mph N/A   Overcast
6:56 PM 23.9 °F 12.9 °F 15.8 °F 71% 30.22 in 10.0 mi East 11.5 mph - N/A   Overcast
7:16 PM 23.9 °F 14.2 °F 16.5 °F 73% 30.23 in 10.0 mi East 9.2 mph - N/A   Overcast
7:36 PM 23.4 °F 12.8 °F 16.3 °F 75% 30.23 in 10.0 mi East 10.4 mph - N/A   Overcast
7:56 PM 23.2 °F 14.1 °F 14.9 °F 71% 30.23 in 10.0 mi East 8.1 mph - N/A   Overcast
8:16 PM 22.8 °F 13.6 °F 15.3 °F 73% 30.24 in 10.0 mi East 8.1 mph - N/A   Overcast
8:36 PM 22.5 °F 14.1 °F 14.9 °F 73% 30.24 in 10.0 mi East 6.9 mph - N/A   Overcast
8:56 PM 22.1 °F 12.8 °F 14.0 °F 71% 30.24 in 10.0 mi ENE 8.1 mph - N/A   Overcast
9:16 PM 21.9 °F 17.2 °F 14.5 °F 73% 30.24 in 10.0 mi ENE 3.5 mph - N/A   Overcast
9:36 PM 21.9 °F 13.4 °F 14.9 °F 74% 30.23 in 10.0 mi ENE 6.9 mph - N/A   Overcast
9:56 PM 22.1 °F 14.7 °F 13.8 °F 70% 30.23 in 10.0 mi East 5.8 mph - N/A   Overcast
10:16 PM 21.9 °F 14.5 °F 12.9 °F 68% 30.22 in 10.0 mi ESE 5.8 mph - N/A   Overcast
10:36 PM 21.6 °F 12.1 °F 12.2 °F 67% 30.21 in 10.0 mi East 8.1 mph - N/A   Overcast
10:56 PM 21.2 °F 12.6 °F 12.0 °F 68% 30.20 in 10.0 mi ESE 6.9 mph - N/A   Overcast
11:16 PM 21.2 °F 12.6 °F 12.9 °F 70% 30.20 in 10.0 mi ESE 6.9 mph - N/A   Overcast
11:36 PM 20.8 °F 11.2 °F 12.0 °F 69% 30.18 in 10.0 mi ESE 8.1 mph - N/A   Overcast
11:56 PM 20.3 °F 10.6 °F 10.9 °F 67% 30.18 in 10.0 mi ESE 8.1 mph - N/A   Overcast